Regional Weather Roundup
Issued by NWS

Home | Current Version | Previous Version | Graphics & Text | Print | Product List | Glossary On
Versions: 1 2 3 4 5 6 7 8 9 10 11 12 13 14 15 16 17 18 19 20 21 22 23 24 25 26 27 28 29 30 31 32 33 34 35 36 37 38 39 40 41 42 43 44 45 46 47 48 49 50
000
ASUS43 KMKX 040000
RWRWI

WISCONSIN REGIONAL WEATHER ROUNDUP
NATIONAL WEATHER SERVICE MILWAUKEE/SULLIVAN WI
700 PM CDT MON AUG 03 2015

NOTE: "FAIR" INDICATES FEW OR NO CLOUDS BELOW 12,000 FEET WITH NO
SIGNIFICANT WEATHER AND/OR OBSTRUCTIONS TO VISIBILITY.

WIZ001-002-006>008-014>016-023>028-040100-
NORTHWEST WISCONSIN

CITY           SKY/WX    TMP DP  RH WIND       PRES   REMARKS
SUPERIOR ARPT  PTSUNNY   70  56  61 NW9       29.84F
ASHLAND        CLOUDY    69  54  58 W9        29.85R
6HR MIN TEMP:  68; 6HR MAX TEMP:  73;

HAYWARD        CLOUDY    69  53  56 N6        29.87S
6HR MIN TEMP:  68; 6HR MAX TEMP:  72;

SIREN          MOSUNNY   73  50  44 NW9       29.88S
CUMBERLAND     MOSUNNY   70  50  49 W7        29.88F
RICE LAKE      MOSUNNY   71  49  46 W7        29.89S
CHETEK         PTSUNNY   73  52  46 W9G17     29.88S
LADYSMITH      PTSUNNY   71  55  56 W7        29.89S
EAU CLAIRE     PTSUNNY   75  50  41 NW10      29.87S
6HR MIN TEMP:  74; 6HR MAX TEMP:  79;

MENOMONIE      SUNNY     75  47  37 W8G16     29.88S
6HR MIN TEMP:  75; 6HR MAX TEMP:  79;

NEW RICHMOND   SUNNY     74  50  42 NW8       29.89S
OSCEOLA        PTSUNNY   75  52  44 W8        29.91S
$$

WIZ003>005-009-010-017-018-040100-
NORTH CENTRAL WISCONSIN

CITY           SKY/WX    TMP DP  RH WIND       PRES   REMARKS
MANITOWISH WTR PTSUNNY   67  52  59 W14       29.85S
ARBOR VITAE    MOSUNNY   67  56  67 W9        29.85S
WOODRUFF       MOSUNNY   67  56  67 W9        29.85S
RHINELANDER    MOSUNNY   67  54  63 W15       29.86F
6HR MIN TEMP:  66; 6HR MAX TEMP:  71;

EAGLE RIVER    PTSUNNY   68  50  52 W10       29.84S
LAND O LAKES   PTSUNNY   67  51  57 W8        29.84F
PHILLIPS       CLOUDY    66  55  67 CALM      29.87S
6HR MIN TEMP:  65; 6HR MAX TEMP:  68;

TOMAHAWK       CLOUDY    65  53  65 NW7       29.88R
MEDFORD        CLOUDY    67  54  63 W7        29.88S
MERRILL        NOT AVBL
$$

WIZ029-030-035-036-043>047-040100-
CENTRAL WISCONSIN

CITY           SKY/WX    TMP DP  RH WIND       PRES   REMARKS
WAUSAU         CLOUDY    70  53  54 NW10      29.85R
6HR MIN TEMP:  70; 6HR MAX TEMP:  76;

MOSINEE        NOT AVBL
MARSHFIELD     CLOUDY    71  52  50 N10       29.88R
6HR MIN TEMP:  71; 6HR MAX TEMP:  78;

STEVENS POINT  PTSUNNY   72  53  52 NW10      29.86S
WAUPACA        PTSUNNY   76  51  40 W8        29.84R
WAUTOMA        NOT AVBL
WISC RAPIDS    PTSUNNY   76  49  38 NW10      29.87R
6HR MIN TEMP:  75; 6HR MAX TEMP:  80;

CAMP DOUGLAS   NOT AVBL
$$

WIZ011>013-019>022-031-037>040-048>050-040100-
NORTHEAST WISCONSIN

CITY           SKY/WX    TMP DP  RH WIND       PRES   REMARKS
ANTIGO         CLOUDY    67  53  59 NW12G18   29.86S
SHAWANO        CLOUDY    71  55  56 NW7       29.84R
OCONTO         PTSUNNY   74  54  49 NW6       29.80R
STURGEON BAY   CLOUDY    70  52  52 NW7       29.83R
6HR MIN TEMP:  70; 6HR MAX TEMP:  73;

GREEN BAY      CLOUDY    71  56  58 NW7       29.82R
6HR MIN TEMP:  71; 6HR MAX TEMP:  79; 6HR PCP: TRACE;

MANITOWOC      NOT AVBL
APPLETON       PTSUNNY   73  48  40 NW17      29.84S
CLINTONVILLE   LGT RAIN  70  54  56 N7        29.84R
OSHKOSH        SUNNY     75  52  44 NW10      29.83R
6HR MIN TEMP:  75; 6HR MAX TEMP:  79;

$$

WIZ032>034-041-042-053>061-040100-
SOUTHWEST WISCONSIN

CITY           SKY/WX    TMP DP  RH WIND       PRES   REMARKS
LA CROSSE      SUNNY     78  52  40 NW9       29.87S
6HR MIN TEMP:  77; 6HR MAX TEMP:  82;

SPARTA         SUNNY     77  46  32 NW8       29.89R
VIROQUA        SUNNY     74  49  41 NW10G16   29.90S
BOSCOBEL       SUNNY     79  54  41 W8        29.88S
6HR MIN TEMP:  78; 6HR MAX TEMP:  85;

PRAIRIE DU CHI SUNNY     79  47  32 W12       29.88S
PLATTEVILLE    SUNNY     77  52  42 W10       29.90S
$$

WIZ056-057-062-063-064-067-068-040100-
SOUTH CENTRAL WISCONSIN

CITY           SKY/WX    TMP DP  RH WIND       PRES   REMARKS
REEDSBURG      SUNNY     77  51  39 W14       29.87S
BARABOO/DELLS  PTSUNNY   77  46  32 NW10      29.87S
LONE ROCK      NOT AVBL
MINERAL POINT  SUNNY     77  46  33 W9        29.89S
MADISON        MOSUNNY   76  51  41 NW9       29.86S
6HR MIN TEMP:  76; 6HR MAX TEMP:  80;

MIDDLETON      SUNNY     78  47  32 NW10      29.87S
WATERTOWN      SUNNY     77  52  42 W8        29.84S
MONROE         SUNNY     77  50  38 W10G16    29.88S
JANESVILLE     MOSUNNY   81  48  32 W10         N/A  HX  80
$$

WIZ051-052-058>065-066-070>072-040100-
SOUTHEAST WISCONSIN

CITY           SKY/WX    TMP DP  RH WIND       PRES   REMARKS
MILWAUKEE      MOSUNNY   79  47  32 NW15      29.84S
6HR MIN TEMP:  78; 6HR MAX TEMP:  81;

WAUKESHA       MOSUNNY   75  48  38 W17       29.86S
MILWAUKEE/TIMM NOT AVBL
RACINE         SUNNY     78  49  35 NW7       29.86R
6HR MIN TEMP:  78; 6HR MAX TEMP:  80;

BURLINGTON     MOSUNNY   76  49  37 W7        29.86S
KENOSHA        MOSUNNY   75  54  47 W8        29.85S
6HR MIN TEMP:  75; 6HR MAX TEMP:  79;

FOND DU LAC    MOSUNNY   76  54  46 NW9       29.84R
6HR MIN TEMP:  76; 6HR MAX TEMP:  80;

SHEBOYGAN      PTSUNNY   76  53  44 NW9       29.82S
6HR MIN TEMP:  73; 6HR MAX TEMP:  78;

WEST BEND      MOSUNNY   77  45  31 W10       29.83F
JUNEAU         SUNNY     75  52  44 W8        29.85F
$$

LSZ147-162-040100-
LAKE SUPERIOR

STATION/POSITION TIME  TEMP    WIND        PRES    WAVE
                       AIR SEA DIR/SP/G            HT/PER
                 (UTC) (F)     (DEG/KT/KT) (MB)    (FT/S)
W MID LAKE BUOY  2250   59 56  240/ 12/ 14 1008.4S   1/ 4
DEVILS ISLAND    2300   58     290/ 13/ 15 1010.4R
PORT WING        2300   64     270/  8/ 15 1010.8R
SAXON HARBOR     2340   67     350/ 15     1010.2R
$$

LMZ867-665-643>646-040100-
LAKE MICHIGAN

STATION/POSITION TIME  TEMP    WIND        PRES    WAVE
                       AIR SEA DIR/SP/G            HT/PER
                 (UTC) (F)     (DEG/KT/KT) (MB)    (FT/S)
CHAMBERS ISLAND  2300   72     310/  8/ 13 1008.8R
S GREEN BAY BUOY 2300   71 70  320/  8/ 12 1010.4R
N MID LAKE BUOY  2250   66 68  330/  6/  6 1008.3R   2/ 3
NORTHPORT PIER   2300   69     360/  3/  5 1008.8R
SISTER BAY       2318   73     340/ 12/ 13   N/A
ALGOMA LAKESHORE 2342          320/  7/  9   N/A
KEWAUNEE LAKESHO 2300   73     310/  8/ 12 1008.7R
SHEBOYGAN LAKESH 2300   76     280/ 12/ 15 1009.7R
PORT WASHINGTON  2300   81     280/  8/ 13 1010.5
ATWATER BUOY     2300   69 48  280/ 12/ 14 1011.6R
MILWAUKEE LAKESH 2300   78     280/ 13/ 18   N/A
KENOSHA   LAKESH 2300   79     290/ 11/ 18 1009.8F
$$

TC  - TEMPERATURE IN CELSIUS
VSB - VISIBILITY IN STATUTE MILES
WCI - WIND CHILL INDEX
HX  - HEAT INDEX




USA.gov is the U.S. government's official web portal to all federal, state and local government web resources and services.